FW6974 Weather Reports


time (UTC)temp
C
wind
direction
speed
KPH
gust
KPH
rain 1hr
cm
rain 24hr
cm
rain mn
cm
humidity
%
barometer
mb
20260507125130 10 253 3.2 6.4 0.00 0.00 0.00 62 1016.2
20260507124625 10 210 4.8 8.0 0.00 0.00 0.00 59 1016.3
20260507124124 10 223 3.2 6.4 0.00 0.00 0.00 60 1016.4
20260507123622 9 253 4.8 8.0 0.00 0.00 0.00 64 1016.5
20260507123118 10 201 3.2 8.0 0.00 0.00 0.00 62 1016.4
20260507122613 10 167 0.0 6.4 0.00 0.00 0.00 65 1016.3
20260507122109 8 201 4.8 9.7 0.00 0.00 0.00 70 1016.4
20260507121606 7 262 3.2 4.8 0.00 0.00 0.00 88 1016.5
20260507121102 6 237 1.6 4.8 0.00 0.00 0.00 99 1016.5
20260507120558 5 311 4.8 4.8 0.00 0.00 0.00 99 1016.5
20260507120055 5 236 3.2 8.0 0.00 0.00 0.00 99 1016.4
20260507115551 6 271 3.2 4.8 0.00 0.00 0.00 99 1016.3
20260507115047 6 19 0.0 3.2 0.00 0.00 0.00 99 1016.4
20260507114543 5 208 3.2 4.8 0.00 0.00 0.00 99 1016.4
20260507114040 5 271 3.2 6.4 0.00 0.00 0.00 99 1016.2
20260507113537 4 293 0.0 4.8 0.00 0.00 0.00 99 1016.5
20260507113035 4 257 3.2 3.2 0.00 0.00 0.00 99 1016.3
20260507112532 4 302 1.6 6.4 0.00 0.00 0.00 99 1016.5
20260507112029 3 258 0.0 3.2 0.00 0.00 0.00 99 1016.1
20260507111526 3 289 1.6 3.2 0.00 0.00 0.00 99 1016.2
20260507111022 3 310 0.0 4.8 0.00 0.00 0.00 99 1016.0
20260507110519 3 306 3.2 3.2 0.00 0.00 0.00 99 1015.9
20260507110016 3 304 3.2 3.2 0.00 0.00 0.00 99 1016.0
20260507105513 3 300 1.6 3.2 0.00 0.00 0.00 99 1016.0
20260507105009 3 317 1.6 3.2 0.00 0.00 0.00 99 1015.7
20260507104506 3 316 3.2 3.2 0.00 0.00 0.00 99 1015.7
20260507104002 3 295 3.2 4.8 0.00 0.00 0.00 99 1015.9
20260507103458 3 295 3.2 4.8 0.00 0.00 0.00 99 1015.9
20260507102955 3 290 3.2 3.2 0.00 0.00 0.00 99 1015.8
20260507102452 3 292 3.2 3.2 0.00 0.00 0.00 99 1015.9
20260507101948 3 292 0.0 4.8 0.00 0.00 0.00 99 1015.8
20260507101443 3 302 3.2 3.2 0.00 0.00 0.00 99 1015.6
20260507100940 3 297 0.0 3.2 0.00 0.00 0.00 99 1015.7
20260507100437 3 327 1.6 3.2 0.00 0.00 0.00 99 1015.9
20260507095935 3 309 3.2 3.2 0.00 0.00 0.00 99 1015.8
20260507095433 3 281 1.6 3.2 0.00 0.00 0.00 99 1015.7
20260507094930 3 295 3.2 3.2 0.00 0.00 0.00 99 1015.8
20260507094426 3 310 1.6 3.2 0.00 0.00 0.00 99 1015.6
20260507093923 3 275 1.6 3.2 0.00 0.00 0.00 99 1015.6
20260507093421 3 276 0.0 3.2 0.00 0.00 0.00 99 1015.7
20260507092919 3 301 3.2 4.8 0.00 0.00 0.00 99 1015.7
20260507092415 3 292 0.0 3.2 0.00 0.00 0.00 99 1015.5
20260507091912 3 328 1.6 3.2 0.00 0.00 0.00 99 1015.7
20260507091408 3 254 0.0 3.2 0.00 0.00 0.00 99 1015.6
20260507090904 3 281 3.2 4.8 0.00 0.00 0.00 99 1015.5
20260507090400 3 253 3.2 3.2 0.00 0.00 0.00 99 1015.5
20260507085857 3 308 3.2 4.8 0.00 0.00 0.00 99 1015.5
20260507085354 3 298 1.6 3.2 0.00 0.00 0.00 99 1015.5
20260507084851 3 299 3.2 3.2 0.00 0.00 0.00 99 1015.6
20260507084348 3 289 3.2 3.2 0.00 0.00 0.00 99 1015.3
20260507083845 3 275 0.0 4.8 0.00 0.00 0.00 99 1015.3
20260507083341 3 283 3.2 3.2 0.00 0.00 0.00 99 1015.2
20260507082838 3 299 3.2 3.2 0.00 0.00 0.00 99 1015.3
20260507082333 3 339 1.6 3.2 0.00 0.00 0.00 99 1015.3
20260507081831 3 287 0.0 4.8 0.00 0.00 0.00 99 1015.3
20260507081326 3 275 1.6 3.2 0.00 0.00 0.00 99 1015.3
20260507080823 3 277 0.0 4.8 0.00 0.00 0.00 99 1015.3
20260507080320 3 278 3.2 3.2 0.00 0.00 0.00 99 1015.4
20260507075815 3 272 3.2 3.2 0.00 0.00 0.00 99 1015.3
20260507075311 3 277 0.0 3.2 0.00 0.00 0.00 99 1015.3
20260507074808 3 281 1.6 3.2 0.00 0.00 0.00 99 1015.1
20260507074306 3 291 0.0 3.2 0.00 0.00 0.00 99 1015.0
20260507073803 4 280 3.2 4.8 0.00 0.00 0.00 99 1015.3
20260507073259 4 265 1.6 3.2 0.00 0.00 0.00 99 1015.2
20260507072757 4 255 3.2 3.2 0.00 0.00 0.00 99 1015.3
20260507072254 4 285 0.0 3.2 0.00 0.00 0.00 99 1015.3
20260507071751 4 272 1.6 3.2 0.00 0.00 0.00 99 1015.2
20260507071247 4 278 3.2 4.8 0.00 0.00 0.00 99 1015.2
20260507070745 5 283 3.2 3.2 0.00 0.00 0.00 99 1015.3
20260507070242 4 267 3.2 3.2 0.00 0.00 0.00 99 1015.1
20260507065738 4 297 1.6 4.8 0.00 0.00 0.00 99 1015.2
20260507065235 4 258 3.2 3.2 0.00 0.00 0.00 99 1015.2
20260507064732 5 275 3.2 3.2 0.00 0.00 0.00 99 1015.1
20260507064231 5 294 0.0 3.2 0.00 0.00 0.00 99 1015.4
20260507063728 5 290 3.2 3.2 0.00 0.00 0.00 99 1015.3
20260507063225 5 269 0.0 4.8 0.00 0.00 0.00 99 1015.4
20260507062722 5 282 1.6 4.8 0.00 0.00 0.00 99 1015.3
20260507062219 5 300 1.6 4.8 0.00 0.00 0.00 99 1015.4
20260507061717 5 289 3.2 4.8 0.00 0.00 0.00 99 1015.4
20260507061215 5 276 1.6 4.8 0.00 0.00 0.00 99 1015.4
20260507060713 5 287 3.2 4.8 0.00 0.00 0.00 99 1015.1
20260507060208 5 277 0.0 3.2 0.00 0.00 0.00 99 1015.4
20260507055705 5 292 3.2 3.2 0.00 0.00 0.00 99 1015.3
20260507055200 5 265 1.6 3.2 0.00 0.00 0.00 98 1015.3
20260507054657 5 312 3.2 3.2 0.00 0.00 0.00 98 1015.4
20260507054154 5 285 3.2 4.8 0.00 0.00 0.00 98 1015.2
20260507053652 5 262 1.6 4.8 0.00 0.00 0.00 98 1015.4
20260507053149 5 292 3.2 4.8 0.00 0.00 0.00 98 1015.6
20260507052648 5 278 3.2 4.8 0.00 0.00 0.00 98 1015.2
20260507052143 5 281 1.6 3.2 0.00 0.00 0.00 98 1015.5
20260507051641 5 253 0.0 4.8 0.00 0.00 0.00 98 1015.5
20260507051138 5 251 3.2 3.2 0.00 0.00 0.00 98 1015.2
20260507050635 5 257 1.6 4.8 0.00 0.00 0.00 98 1015.5
20260507050131 5 308 0.0 4.8 0.00 0.00 0.00 98 1015.4
20260507045629 5 291 1.6 4.8 0.00 0.00 0.00 98 1015.5
20260507045125 5 315 0.0 3.2 0.00 0.00 0.00 98 1015.5
20260507044622 5 275 3.2 4.8 0.00 0.00 0.00 97 1015.6
20260507044119 5 254 3.2 4.8 0.00 0.00 0.00 97 1015.5
20260507043615 5 260 3.2 3.2 0.00 0.00 0.00 97 1015.7
20260507043112 6 271 0.0 4.8 0.00 0.00 0.00 97 1015.7
20260507042608 6 294 1.6 4.8 0.00 0.00 0.00 97 1015.8
20260507042103 6 283 3.2 4.8 0.00 0.00 0.00 97 1015.6
20260507041600 6 279 1.6 4.8 0.00 0.00 0.00 97 1015.8
20260507041057 6 288 1.6 4.8 0.00 0.00 0.00 97 1015.7
20260507040554 6 294 1.6 4.8 0.00 0.00 0.00 97 1015.7
20260507040050 6 317 3.2 3.2 0.00 0.00 0.00 96 1015.7
20260507035546 6 285 1.6 3.2 0.00 0.00 0.00 96 1015.5
20260507035043 6 287 1.6 4.8 0.00 0.00 0.00 95 1015.3
20260507034539 6 276 1.6 3.2 0.00 0.00 0.00 95 1015.5
20260507034038 6 295 3.2 3.2 0.00 0.00 0.00 94 1015.5
20260507033535 6 269 1.6 3.2 0.00 0.00 0.00 94 1015.5
20260507033032 6 264 0.0 3.2 0.00 0.00 0.00 94 1015.4
20260507032529 6 269 1.6 3.2 0.00 0.00 0.00 94 1015.6
20260507032026 6 294 0.0 3.2 0.00 0.00 0.00 94 1015.7
20260507031521 6 291 3.2 3.2 0.00 0.00 0.00 93 1015.6
20260507031019 6 275 0.0 4.8 0.00 0.00 0.00 93 1015.7
20260507030516 6 276 1.6 3.2 0.00 0.00 0.00 92 1015.5
20260507030014 7 328 3.2 3.2 0.00 0.00 0.00 92 1015.5
20260507025510 7 288 3.2 3.2 0.00 0.00 0.00 91 1015.3
20260507025008 7 316 1.6 3.2 0.00 0.00 0.00 91 1015.5
20260507024506 7 241 0.0 3.2 0.00 0.00 0.00 91 1015.7
20260507024001 7 262 3.2 3.2 0.00 0.00 0.00 90 1015.4
20260507023458 7 257 1.6 3.2 0.00 0.00 0.00 89 1015.4
20260507022955 7 265 3.2 3.2 0.00 0.00 0.00 89 1015.4
20260507022452 7 276 0.0 3.2 0.00 0.00 0.00 89 1015.3
20260507021948 8 292 0.0 3.2 0.00 0.00 0.00 88 1015.2
20260507021443 8 269 1.6 3.2 0.00 0.00 0.00 88 1015.4
20260507020941 8 269 1.6 3.2 0.00 0.00 0.00 87 1015.2
20260507020438 8 264 3.2 3.2 0.00 0.00 0.00 86 1015.3
20260507015934 8 269 0.0 3.2 0.00 0.00 0.00 85 1015.6
20260507015433 9 259 1.6 3.2 0.00 0.00 0.00 85 1015.2
20260507014930 9 272 1.6 3.2 0.00 0.00 0.00 84 1015.3
20260507014426 9 275 3.2 4.8 0.00 0.00 0.00 84 1015.1
20260507013922 10 280 1.6 3.2 0.00 0.00 0.00 84 1015.1
20260507013419 10 242 0.0 3.2 0.00 0.00 0.00 82 1015.2
20260507012917 10 260 1.6 3.2 0.00 0.00 0.00 81 1015.1
20260507012413 10 246 0.0 3.2 0.00 0.00 0.00 81 1015.0
20260507011905 10 266 0.0 3.2 0.00 0.00 0.00 80 1014.8
20260507011402 10 252 1.6 3.2 0.00 0.00 0.00 78 1014.8
20260507010901 10 281 0.0 1.6 0.00 0.00 0.00 75 1014.8
20260507010356 10 239 1.6 3.2 0.00 0.00 0.00 76 1014.5
20260507005854 11 236 1.6 3.2 0.00 0.00 0.00 76 1014.4
20260507005351 11 291 3.2 3.2 0.00 0.00 0.00 74 1014.8
20260507004847 11 268 0.0 1.6 0.00 0.00 0.00 74 1014.5
20260507004345 11 295 0.0 3.2 0.00 0.00 0.00 70 1014.7
20260507003842 11 267 0.0 3.2 0.00 0.00 0.00 73 1014.7
20260507003337 12 309 0.0 3.2 0.00 0.00 0.00 73 1014.7
20260507002832 12 289 1.6 3.2 0.00 0.00 0.00 74 1014.4
20260507002328 12 201 3.2 3.2 0.00 0.00 0.00 65 1014.5
20260507001826 12 213 1.6 8.0 0.00 0.00 0.00 65 1014.2
20260507001323 13 327 3.2 4.8 0.00 0.00 0.00 69 1014.5
20260507000819 13 289 1.6 3.2 0.00 0.00 0.00 70 1014.5
20260507000315 13 219 3.2 4.8 0.00 0.00 0.00 72 1014.2
20260506235812 13 299 3.2 4.8 0.00 0.00 0.00 67 1014.2
20260506235308 13 281 0.0 3.2 0.00 0.00 0.00 61 1014.2
20260506234804 13 271 1.6 4.8 0.00 0.00 0.00 62 1014.2
20260506234302 13 219 3.2 4.8 0.00 0.00 0.00 63 1014.0
20260506233800 13 243 3.2 4.8 0.00 0.00 0.00 59 1014.0
20260506233256 13 238 3.2 4.8 0.00 0.00 0.00 63 1013.9
20260506232753 13 232 4.8 6.4 0.00 0.00 0.00 57 1013.7
20260506232247 14 88 3.2 4.8 0.00 0.00 0.00 58 1014.0
20260506231745 13 143 1.6 8.0 0.00 0.00 0.00 57 1013.6
20260506231243 14 217 4.8 6.4 0.00 0.00 0.00 57 1013.7
20260506230739 14 332 3.2 6.4 0.00 0.00 0.00 57 1013.3
20260506230237 14 150 8.0 8.0 0.00 0.00 0.00 55 1013.3
20260506225733 14 290 3.2 4.8 0.00 0.00 0.00 60 1013.5
20260506225230 14 227 3.2 6.4 0.00 0.00 0.00 57 1013.6
20260506224726 14 306 1.6 6.4 0.00 0.00 0.00 57 1013.6
20260506224224 14 133 4.8 9.7 0.00 0.00 0.00 53 1013.6
20260506223720 14 291 3.2 6.4 0.00 0.00 0.00 57 1013.5
20260506223216 14 204 3.2 8.0 0.00 0.00 0.00 60 1013.6
20260506222713 14 191 6.4 12.9 0.00 0.00 0.00 54 1013.7
20260506222208 14 209 6.4 9.7 0.00 0.00 0.00 53 1013.8
20260506221707 15 170 6.4 8.0 0.00 0.00 0.00 56 1013.8
20260506221204 15 186 3.2 9.7 0.00 0.00 0.00 56 1013.7
20260506220701 15 254 0.0 6.4 0.00 0.00 0.00 59 1013.8
20260506220156 15 265 0.0 4.8 0.00 0.00 0.00 59 1014.1
20260506215653 15 231 3.2 9.7 0.00 0.00 0.00 53 1013.9
20260506215148 15 185 3.2 8.0 0.00 0.00 0.00 56 1014.0
20260506214645 15 240 3.2 8.0 0.00 0.00 0.00 53 1014.0
20260506214143 15 123 3.2 6.4 0.00 0.00 0.00 55 1014.0
20260506213641 15 252 1.6 6.4 0.00 0.00 0.00 57 1013.8
20260506213138 15 212 6.4 6.4 0.00 0.00 0.00 55 1013.9
20260506212635 15 275 6.4 8.0 0.00 0.00 0.00 54 1013.7
20260506212130 15 224 6.4 12.9 0.00 0.00 0.00 56 1013.7
20260506211626 15 36 0.0 8.0 0.00 0.00 0.00 56 1013.5
20260506211123 15 280 4.8 9.7 0.00 0.00 0.00 54 1013.5
20260506210620 16 214 3.2 6.4 0.00 0.00 0.00 58 1013.5
20260506210116 15 232 4.8 8.0 0.00 0.00 0.00 55 1013.6
20260506205613 15 259 6.4 8.0 0.00 0.00 0.00 55 1013.5
20260506205108 15 254 3.2 6.4 0.00 0.00 0.00 54 1013.5
20260506204606 15 221 8.0 8.0 0.00 0.00 0.00 56 1013.3
20260506204103 15 212 3.2 12.9 0.00 0.00 0.00 54 1013.3
20260506203601 15 118 3.2 9.7 0.00 0.00 0.00 53 1013.5
20260506203057 16 304 6.4 6.4 0.00 0.00 0.00 56 1013.6
20260506202555 16 327 0.0 3.2 0.00 0.00 0.00 50 1013.2
20260506202051 16 304 0.0 9.7 0.00 0.00 0.00 55 1013.5
20260506201549 16 267 3.2 6.4 0.00 0.00 0.00 51 1013.5
20260506201045 16 191 3.2 6.4 0.00 0.00 0.00 58 1013.4
20260506200541 16 331 0.0 4.8 0.00 0.00 0.00 49 1013.5
20260506200038 16 160 0.0 4.8 0.00 0.00 0.00 57 1013.5
20260506195535 16 269 3.2 6.4 0.00 0.00 0.00 53 1013.4
20260506195032 16 219 0.0 4.8 0.00 0.00 0.00 48 1013.3
20260506194530 16 329 1.6 8.0 0.00 0.00 0.00 46 1013.7
20260506194026 16 261 3.2 4.8 0.00 0.00 0.00 48 1013.5
20260506193523 16 140 6.4 9.7 0.00 0.00 0.00 48 1013.6
20260506193020 16 163 4.8 9.7 0.00 0.00 0.00 47 1013.6
20260506192517 16 187 0.0 4.8 0.00 0.00 0.00 45 1013.5
20260506192013 16 303 4.8 8.0 0.00 0.00 0.00 46 1013.3
20260506191510 16 209 8.0 9.7 0.00 0.00 0.00 48 1013.1
20260506191006 16 148 3.2 6.4 0.00 0.00 0.00 48 1013.4
20260506190503 16 169 6.4 14.5 0.00 0.00 0.00 47 1013.4
20260506185959 16 274 6.4 11.3 0.00 0.00 0.00 47 1013.1
20260506185457 15 216 4.8 11.3 0.00 0.00 0.00 50 1013.4
20260506184954 15 11 3.2 11.3 0.00 0.00 0.00 47 1013.3
20260506184451 15 249 6.4 19.3 0.00 0.00 0.00 49 1013.3
20260506183948 15 258 3.2 12.9 0.00 0.00 0.00 48 1013.3
20260506183443 16 243 9.7 11.3 0.00 0.00 0.00 48 1013.4
20260506182941 16 169 1.6 8.0 0.00 0.00 0.00 52 1013.2
20260506182438 15 158 6.4 12.9 0.00 0.00 0.00 54 1013.3
20260506181935 16 242 3.2 14.5 0.00 0.00 0.00 54 1013.0
20260506181433 15 243 0.0 9.7 0.00 0.00 0.00 51 1013.2
20260506180930 15 245 6.4 11.3 0.00 0.00 0.00 52 1012.9
20260506180426 15 131 4.8 6.4 0.00 0.00 0.00 52 1013.1
20260506175923 15 294 9.7 12.9 0.00 0.00 0.00 59 1013.6
20260506175420 15 185 0.0 8.0 0.00 0.00 0.00 56 1013.5
20260506174916 15 269 0.0 14.5 0.00 0.00 0.00 51 1013.5
20260506174414 15 217 1.6 17.7 0.00 0.00 0.00 54 1013.3
20260506173911 14 240 1.6 9.7 0.00 0.00 0.00 52 1013.6
20260506173408 15 140 6.4 8.0 0.00 0.00 0.00 52 1013.8
20260506172905 14 130 3.2 12.9 0.00 0.00 0.00 52 1013.9
20260506172401 14 259 4.8 14.5 0.00 0.00 0.00 53 1013.7
20260506171859 14 221 6.4 9.7 0.00 0.00 0.00 55 1013.8
20260506171356 14 145 9.7 9.7 0.00 0.00 0.00 57 1013.7
20260506170854 14 279 6.4 12.9 0.00 0.00 0.00 54 1013.9
20260506170349 14 193 1.6 6.4 0.00 0.00 0.00 57 1013.9
20260506165849 13 213 8.0 9.7 0.00 0.00 0.00 57 1014.0
20260506165346 13 273 9.7 9.7 0.00 0.00 0.00 59 1014.0
20260506164842 13 134 0.0 11.3 0.00 0.00 0.00 62 1014.1
20260506164339 13 253 6.4 9.7 0.00 0.00 0.00 59 1013.9
20260506163837 13 202 8.0 11.3 0.00 0.00 0.00 57 1014.1
20260506163331 13 210 9.7 9.7 0.00 0.00 0.00 64 1014.1
20260506162827 13 188 6.4 9.7 0.00 0.00 0.00 60 1014.0
20260506162325 13 140 1.6 12.9 0.00 0.00 0.00 64 1014.1
20260506161823 13 273 16.1 16.1 0.00 0.00 0.00 60 1013.9
20260506161320 13 236 3.2 8.0 0.00 0.00 0.00 61 1013.8
20260506160817 13 206 8.0 9.7 0.00 0.00 0.00 60 1013.7
20260506160313 13 211 11.3 14.5 0.00 0.00 0.00 60 1013.6
20260506155813 13 233 6.4 8.0 0.00 0.00 0.00 66 1014.0
20260506155309 13 116 3.2 17.7 0.00 0.00 0.00 65 1013.7
20260506153421 12 210 8.0 14.5 0.00 0.00 0.00 65 1013.4
20260506152919 12 215 8.0 16.1 0.00 0.00 0.00 66 1013.6
20260506152415 12 236 8.0 14.5 0.00 0.00 0.00 64 1013.8
20260506151914 12 138 9.7 12.9 0.00 0.00 0.00 63 1013.6
20260506151410 11 205 1.6 14.5 0.00 0.00 0.00 67 1013.4
20260506150908 12 245 8.0 14.5 0.00 0.00 0.00 67 1013.3
20260506150404 12 210 3.2 11.3 0.00 0.00 0.00 66 1013.4
20260506145901 12 268 6.4 17.7 0.00 0.00 0.00 71 1013.2
20260506145357 11 266 6.4 16.1 0.00 0.00 0.00 73 1013.0
20260506144855 11 215 11.3 14.5 0.00 0.00 0.00 73 1013.1
20260506144351 11 250 6.4 6.4 0.00 0.00 0.00 79 1013.2
20260506143850 11 186 8.0 8.0 0.00 0.00 0.00 74 1013.0
20260506143346 11 273 3.2 4.8 0.00 0.00 0.00 78 1012.9
20260506142845 11 299 4.8 8.0 0.00 0.00 0.00 77 1012.8
20260506142342 11 204 3.2 8.0 0.00 0.00 0.00 77 1012.8
20260506141840 11 198 9.7 9.7 0.00 0.00 0.00 75 1012.7
20260506141338 11 251 8.0 11.3 0.00 0.00 0.00 78 1012.8
20260506140836 10 239 4.8 9.7 0.00 0.00 0.00 79 1012.6
20260506140332 10 240 8.0 12.9 0.00 0.00 0.00 80 1012.6
20260506135829 11 304 9.7 9.7 0.00 0.00 0.00 78 1012.6
20260506135326 10 116 1.6 8.0 0.00 0.00 0.00 82 1012.0
20260506134822 10 168 3.2 8.0 0.00 0.00 0.00 82 1012.3
20260506134319 10 227 3.2 6.4 0.00 0.00 0.00 84 1012.3
20260506133816 9 131 11.3 12.9 0.00 0.00 0.00 84 1012.6
20260506133313 9 284 4.8 8.0 0.00 0.00 0.00 83 1012.4
20260506132809 10 314 3.2 9.7 0.00 0.00 0.00 84 1012.6
20260506132307 9 145 4.8 6.4 0.00 0.00 0.00 84 1012.5
20260506131805 9 243 6.4 14.5 0.00 0.00 0.00 83 1012.3
20260506131300 9 278 3.2 12.9 0.00 0.00 0.00 87 1012.1
20260506130757 8 287 3.2 6.4 0.00 0.00 0.00 89 1012.2
20260506130254 8 129 8.0 8.0 0.00 0.00 0.00 89 1011.9
20260506125752 8 248 8.0 12.9 0.00 0.00 0.00 89 1011.8
20260506125250 8 243 6.4 9.7 0.00 0.00 0.00 90 1012.1